Simultaneous Nadir Overpasses (SNOs) Predictions

Prediction of SNOs between GOES-17 and LANDSAT-8 Satellite Orbit:

Table of predicted SNOs for the next 14.0 days since TLE Epoch: 6/25/2022
Index Date Time (GOES-17) GOES-17 Lat,Lon LANDSAT-8 Lat,Lon Distance(km) Time Diff (sec)
1 06/26/2022 19:10:31 0.04,-137.20 -0.59,-134.27 333.82 80
2 06/27/2022 07:29:15 -0.03,-137.20 -0.53,-139.45 256.96 80
3 06/29/2022 07:19:44 -0.03,-137.19 0.10,-136.49 78.84 80
4 07/01/2022 07:07:33 -0.03,-137.18 0.74,-133.54 414.00 80
5 07/01/2022 19:26:09 0.03,-137.18 0.33,-138.70 172.46 80
6 07/03/2022 19:16:37 0.02,-137.16 -0.26,-135.73 162.24 80
7 07/04/2022 07:35:22 -0.02,-137.16 -0.80,-140.93 428.89 80
8 07/05/2022 19:04:26 0.02,-137.14 -0.91,-132.78 496.52 80
9 07/06/2022 07:23:10 -0.02,-137.14 -0.20,-137.97 94.68 80
10 07/08/2022 07:13:39 -0.02,-137.11 0.46,-135.01 238.99 80
11 07/08/2022 19:32:13 0.01,-137.10 0.67,-140.16 348.00 80
